User: anonymous   Login
Location: Unspecified
(0.0000°N, 0.0000°E)
Time: 04:59:46
(UTC+01:00)
Language:

Iridium 15 - Orbit

View from above orbital plane
View from above orbital plane
View from above satellite
View from above satellite

Ground track
Ground track

The orbit data is extracted from the following two-line orbital elements,

1 24869U 97034A   14304.43810977  .00000009  00000-0 -38873-5 0  1359
2 24869 086.3981 062.9926 0002137 112.6991 313.5058 14.34209858906354
Epoch (UTC): 31 October 2014 10:30:52
Eccentricity: 0.0002137
inclination: 86.3981°
perigee height: 776 km
apogee height: 779 km
right ascension of ascending node: 62.9926°
argument of perigee: 112.6991°
revolutions per day: 14.34209858
mean anomaly at epoch: 313.5058°
orbit number at epoch: 90635

The dashed part of the orbit path shows where the satellite is in the earth's shadow,  

DLR